Location: Putah Creek Observatory
(38.7021°N, 122.3865°W)
Time: 17:34:17
(UTC-07:00)

ISS - Pass Details

Date: 21 March 2019
Orbit: 408 x 410 km, 51.6° (Epoch: 23 April)

Event Time Altitude Azimuth Distance (km) Brightness Sun altitude
Rises 20:00:39 0° 210° (SSW) 2,320 0.3 -8.3°
Reaches altitude 10° 20:02:50 10° 201° (SSW) 1,463 -0.8 -8.7°
Maximum altitude 20:05:50 33° 134° (SE) 700 -3.0 -9.3°
Enters shadow 20:08:35 12° 70° (ENE) 1,376 -1.7 -9.8°
